Lid_Strength_Index
0 -0 -2 -2 -2 -2 -2 -2 -2 -2 -2 -2 -1 -2 -2 -2 -1 -1 -2 -2 -2 -2 -2 -2 -2 -2 -2 -2 -2 -1 -1 -2 -2 -2 -1 -1 -1 -1 -2 -2 -2 -1 -2
-0 -1 -2 -2 -2 -2 -2 -2 -2 -2 -2 -2 -2 -2 -2 -2 -2 -2 -2 -2 -2 -2 -2 -2 -2 -2 -2 -2 -2 -1 -2 -2 -2 -2 -1 -1 -1 -1 -2 -1 -2 -1 -1
1 -0 -1 -2 -2 -2 -2 -2 -2 -2 -2 -2 -2 -2 -2 -2 -2 -2 -2 -2 -2 -2 -2 -2 -2 -2 -2 -2 -1 -1 -1 -2 -2 -2 -2 -0 -0 -2 -2 -2 -2 -2 -2
1 0 -0 -2 -2 -2 -2 -1 -2 -2 -1 -1 -1 -2 -2 -2 -2 -2 -2 -2 -2 -2 -2 -2 -2 -2 -2 -2 -2 -2 -1 -1 -2 -2 -1 -1 -1 -1 -2 -2 -1 -1 -1
2 1 0 -1 -1 -1 -2 -2 -2 -2 -2 -2 -2 -2 -2 -2 -2 -2 -2 -2 -2 -2 -2 -2 -2 -2 -2 -2 -2 -2 -2 -1 -2 -2 -0 0 -0 -1 -1 -1 -1 -1 -2
2 1 -1 -1 -1 -1 -2 -2 -2 -2 -2 -1 -1 -0 -1 -1 -1 -1 -1 -1 -1 -2 -1 -1 -1 -0 -1 -1 -2 -2 -2 -2 -2 1 -1 -1 -2 -1 -2 -1 -2 -1 -2
2 2 1 -1 -1 -1 -2 -2 -1 -1 -0 0 0 1 0 -1 -0 -0 -1 -0 0 1 1 1 0 -0 -1 -1 -1 -1 -2 -3 -0 -0 -0 -0 -1 -1 -1 -1 -1 -1 -1
2 2 0 -1 -1 -1 -1 -1 -1 -1 -0 0 0 0 1 1 1 1 1 1 1 1 0 0 -0 -1 -1 -1 -2 -1 -1 -2 -0 -1 -1 -0 -1 -1 -1 -1 -1 -2 -1
0 1 1 1 1 -0 -0 -0 -1 -0 0 0 0 -0 0 1 1 0 2 1 1 1 -0 -1 -1 -2 -2 -1 -2 -1 -1 -1 -0 -0 -1 -1 -1 -1 -1 -1 -1 -1 -1
1 1 2 2 2 4 4 -0 -0 -0 1 1 0 0 1 0 1 1 2 1 0 1 0 -1 -2 -2 -1 -1 -1 -1 -2 -1 1 1 0 -1 -2 -1 -1 -1 -1 -1 -1
2 3 4 4 3 3 4 2 1 0 -0 0 2 -0 2 5 6 6 2 1 -1 -1 0 -1 -2 -2 -1 -1 -1 -1 0 1 2 2 1 -2 -2 -2 -2 -1 -1 -1 -1
4 4 5 5 5 3 2 3 4 4 5 5 5 5 5 5 4 3 2 -0 -1 -1 -1 -1 -1 -1 0 3 2 1 3 2 3 3 1 -2 -2 -2 -2 -2 -1 -1 -1
4 4 5 5 5 6 5 4 6 5 5 4 4 4 4 4 4 4 5 4 4 1 4 3 3 3 2 3 3 3 3 3 3 3 0 -2 -3 -2 -2 -2 -2 -2 -1
5 5 5 5 6 6 6 6 6 5 5 4 4 3 4 4 5 4 4 4 4 4 4 4 4 4 4 3 3 3 3 3 3 3 1 -2 -2 -2 -2 -2 -2 -1 -2
6 6 5 5 6 6 6 5 5 5 4 4 4 3 4 4 4 4 4 4 4 4 4 4 4 4 4 4 4 4 4 3 3 3 3 -2 -2 -1 -1 -1 -2 -2 -2
5 5 5 5 5 5 6 6 6 5 4 4 4 3 3 3 3 4 4 3 4 4 4 5 4 4 4 4 4 4 4 3 3 3 2 1 -2 -1 -1 -1 -1 -1 -1
5 5 5 6 5 6 6 5 5 5 4 4 4 3 3 3 3 4 4 4 4 5 5 5 5 5 5 5 6 5 5 5 5 3 3 2 0 -1 -2 -1 -1 -0 -0
5 5 5 3 5 5 5 6 5 4 4 4 4 3 3 2 2 3 4 5 4 4 5 5 6 6 6 7 8 6 6 5 4 4 3 4 3 1 -1 -1 -1 -0 0
5 5 5 5 5 5 5 4 5 4 4 4 3 3 3 2 2 4 5 5 5 5 5 6 7 7 8 8 6 7 8 6 5 5 5 4 3 3 4 0 0 -0 -0
4 5 5 5 5 5 4 5 5 4 5 3 3 3 2 2 3 4 5 6 5 6 7 7 8 8 8 8 6 8 8 6 7 7 6 4 4 5 5 6 4 2 0
4 5 5 4 4 4 5 5 5 5 4 4 3 2 2 3 4 5 5 6 6 6 7 7 8 8 9 8 9 8 8 8 9 8 8 7 7 6 6 6 5 4 2
5 4 5 4 4 4 5 5 5 4 4 3 2 3 3 4 5 6 7 6 6 7 8 8 8 8 9 8 10 11 12 10 9 9 9 8 9 7 7 7 7 8 5
5 4 4 4 4 4 4 4 4 3 3 3 3 4 4 5 6 6 6 7 7 7 8 8 8 9 10 9 10 11 12 13 10 9 9 8 9 9 8 7 7 7 5
5 4 4 4 4 4 4 5 5 5 5 4 3 5 6 6 6 5 6 7 8 7 8 8 8 10 10 10 9 7 10 11 13 12 10 10 9 9 10 9 8 8 6
5 4 4 4 3 3 4 4 5 5 4 3 4 6 6 7 6 5 6 7 7 8 9 9 9 9 9 9 9 10 10 11 11 13 14 12 11 10 10 10 9 9 8
5 5 5 5 3 3 4 4 4 5 5 5 6 7 7 7 7 7 6 7 7 8 8 8 8 9 9 9 9 10 11 12 12 13 14 14 14 12 11 10 10 10 9